Montreal/Mirabel, Ontario

1:36 PM EST on December 07, 2016 (GMT -0500)
Montreal International (Mirabel)

Weather History for CYMX - April, 2014

Change the Weather History Date:

Friday, April 4, 2014

  Actual Average Record
Temperature  
Mean Temperature 28 °F -  
Max Temperature 35 °F 40 °F 50 °F (1997)
Min Temperature 21 °F 25 °F 12 °F (2016)
Degree Days  
Heating Degree Days 37    
Moisture  
Dew Point 22 °F    
Average Humidity 70    
Maximum Humidity 100    
Minimum Humidity 56    
Precipitation  
Precipitation 0.00 in - - ()
Sea Level Pressure  
Sea Level Pressure 29.98 in    
Wind  
Wind Speed 7 mph ()    
Max Wind Speed 16 mph    
Max Gust Speed 23 mph    
Visibility 12.4 miles    
Events Rain    
Averages and records for this station are not official NWS values.
T = Trace of Precipitation, MM = Missing Value Source: Averaged Metar Reports

Daily Weather History Graph

Daily Weather History Graph

Search for Another Location

Airport or City:

Trip Planner

Search our weather history database for the weather conditions in past years. The results will help you decide how hot, cold, wet, or windy it might be!

Date:

Astronomy

Apr. 04, 2014 Rise Set
Actual Time 6:30 AM EDT 7:28 PM EDT
Civil Twilight 6:00 AM EDT 7:58 PM EDT
Nautical Twilight 5:24 AM EDT 8:34 PM EDT
Astronomical Twilight 4:46 AM EDT 9:12 PM EDT
Moon 9:34 AM EDT (4/4) No Moon Set
Length of Visible Light 13h 58m
Length of Day
12h 57m
Waxing Crescent, 25% of the Moon is Illuminated
Apr 4
Waxing Crescent
Apr 7
First Quarter
Apr 15
Full
Apr 22
Last Quarter
Apr 29
New

Hourly Weather History & Observations

Time (EDT) Temp. Windchill Dew Point Humidity Pressure Visibility Wind Dir Wind Speed Gust Speed Precip Events Conditions
12:00 AM 26.6 °F - 17.6 °F 69% 30.23 in 25.0 mi NE 2.3 mph - N/A   Partly Cloudy
1:00 AM 28.4 °F 21.2 °F 17.6 °F 64% 30.22 in 25.0 mi ENE 6.9 mph - N/A   Clear
3:00 AM 24.8 °F 19.1 °F 15.8 °F 69% 30.20 in 25.0 mi ENE 4.6 mph - N/A   Clear
4:00 AM 24.8 °F 17.9 °F 14.0 °F 64% 30.17 in 25.0 mi ENE 5.8 mph - N/A   Clear
5:00 AM 23.0 °F 15.8 °F 14.0 °F 68% 30.17 in 25.0 mi NE 5.8 mph - N/A   Clear
6:00 AM 21.2 °F - 12.2 °F 68% 30.17 in 25.0 mi NNE 2.3 mph - N/A   Partly Cloudy
7:00 AM 21.2 °F 13.6 °F 14.0 °F 74% 30.17 in 40.0 mi ENE 5.8 mph - N/A   Partly Cloudy
8:00 AM 24.8 °F - 14.0 °F 64% 30.17 in 40.0 mi North - - N/A   Partly Cloudy
8:02 AM 24.8 °F 14.6 °F 14.0 °F 64% 30.17 in 40.0 mi ENE 10.4 mph - N/A   Partly Cloudy
9:00 AM 26.6 °F 18.2 °F 15.8 °F 64% 30.14 in 40.0 mi NE 8.1 mph 17.3 mph N/A   Scattered Clouds
10:00 AM 28.4 °F 19.1 °F 17.6 °F 64% 30.12 in 40.0 mi NE 10.4 mph 20.7 mph N/A   Mostly Cloudy
11:00 AM 32.0 °F 23.0 °F 19.4 °F 60% 30.09 in 45.0 mi NE 11.5 mph 20.7 mph N/A   Overcast
12:00 PM 33.8 °F 24.8 °F 19.4 °F 56% 30.07 in 45.0 mi NE 12.7 mph 20.7 mph N/A   Overcast
1:00 PM 35.6 °F 26.6 °F 21.2 °F 56% 30.03 in 45.0 mi NE 13.8 mph 21.9 mph N/A   Overcast
2:00 PM 35.6 °F 27.1 °F 21.2 °F 56% 29.96 in 45.0 mi NE 12.7 mph 23.0 mph N/A   Overcast
3:00 PM 35.6 °F 27.5 °F 23.0 °F 60% 29.93 in 40.0 mi NE 11.5 mph 19.6 mph N/A   Overcast
4:00 PM 35.6 °F 28.0 °F 24.8 °F 65% 29.86 in 40.0 mi ENE 10.4 mph - N/A   Overcast
5:00 PM 35.6 °F 28.0 °F 24.8 °F 65% 29.79 in 45.0 mi ENE 10.4 mph 17.3 mph N/A   Overcast
5:26 PM 35.6 °F 28.6 °F 24.8 °F 65% 29.79 in 20.0 mi ENE 9.2 mph 18.4 mph N/A Rain Light Rain Showers
6:00 PM 35.6 °F 29.9 °F 26.6 °F 70% 29.78 in 20.0 mi NE 6.9 mph - N/A Rain Light Rain
7:00 PM 35.6 °F 29.2 °F 28.4 °F 75% 29.75 in 15.0 mi ENE 8.1 mph - N/A Rain Light Rain
8:00 PM 35.6 °F 28.0 °F 32.0 °F 87% 29.70 in 6.0 mi ENE 10.4 mph - N/A Rain Light Rain
9:00 PM 35.6 °F 28.0 °F 33.8 °F 93% 29.72 in 12.0 mi East 10.4 mph - N/A Rain Light Rain
9:15 PM 35.6 °F 26.2 °F 33.8 °F 93% 29.71 in 8.0 mi East 15.0 mph - N/A Rain Light Rain
10:00 PM 35.6 °F 25.9 °F 33.8 °F 93% 29.70 in 10.0 mi East 16.1 mph - N/A Rain Light Rain
11:00 PM 35.6 °F 26.2 °F 35.6 °F 100% 29.67 in 8.0 mi ESE 15.0 mph 23.0 mph N/A Rain Light Rain